Weather History for Mineral Wells, TX

Change the Weather History Date:

Sunday, December 1, 2013

  Actual Average Record
Temperature  
Mean Temperature 56 °F -  
Max Temperature 66 °F 60 °F 82 °F (2012)
Min Temperature 46 °F 38 °F 19 °F (2006)
Degree Days  
Heating Degree Days 9    
Growing Degree Days 6 (Base 50)    
Moisture  
Dew Point 51 °F    
Average Humidity 88    
Maximum Humidity 100    
Minimum Humidity 61    
Precipitation  
Precipitation 0.00 in - - ()
Sea Level Pressure  
Sea Level Pressure 30.00 in    
Wind  
Wind Speed 6 mph (SSW)    
Max Wind Speed 15 mph    
Max Gust Speed 18 mph    
Visibility 9 miles    
Events Fog    
Averages and records for this station are not official NWS values.
T = Trace of Precipitation, MM = Missing Value Source: NWS Daily Summary

Daily Weather History Graph

Daily Weather History Graph

Search for Another Location

Airport:

Trip Planner

Search our weather history database for the weather conditions in past years. The results will help you decide how hot, cold, wet, or windy it might be!

Date:

Astronomy

Dec. 01, 2013 Rise Set
Actual Time 7:16 AM CST 5:25 PM CST
Civil Twilight 6:49 AM CST 5:52 PM CST
Nautical Twilight 6:19 AM CST 6:23 PM CST
Astronomical Twilight 5:49 AM CST 6:53 PM CST
Moon 5:40 AM CST (12/1) 4:33 PM CST (12/1)
Length of Visible Light 11h 02m
Length of Day
10h 08m
Waning Crescent, 2% of the Moon is Illuminated
Dec 1
Waning Crescent
Dec 2
New
Dec 9
First Quarter
Dec 17
Full
Dec 25
Last Quarter

Hourly Weather History & Observations

Time (CST) Temp. Windchill Dew Point Humidity Pressure Visibility Wind Dir Wind Speed Gust Speed Precip Events Conditions
12:53 AM 48.9 °F - 48.0 °F 97% 30.11 in 10.0 mi SSE 3.5 mph - N/A   Clear
1:53 AM 50.0 °F - 48.9 °F 96% 30.11 in 10.0 mi Calm Calm - N/A   Clear
2:53 AM 51.1 °F - 50.0 °F 96% 30.10 in 10.0 mi SE 8.1 mph - N/A   Clear
3:53 AM 50.0 °F - 48.9 °F 96% 30.09 in 10.0 mi SSE 8.1 mph - N/A   Clear
4:53 AM 50.0 °F - 48.9 °F 96% 30.09 in 10.0 mi SSE 9.2 mph - N/A   Clear
5:53 AM 50.0 °F - 48.9 °F 96% 30.08 in 10.0 mi SSE 8.1 mph - N/A   Clear
6:53 AM 48.9 °F - 48.0 °F 97% 30.08 in 10.0 mi SSE 9.2 mph - N/A   Clear
7:53 AM 50.0 °F - 48.9 °F 96% 30.09 in 10.0 mi SSE 8.1 mph - N/A   Clear
8:53 AM 53.1 °F - 51.1 °F 93% 30.09 in 10.0 mi SSE 6.9 mph - N/A   Clear
9:53 AM 55.0 °F - 52.0 °F 89% 30.10 in 10.0 mi SSE 5.8 mph - N/A   Clear
10:53 AM 60.1 °F - 54.0 °F 80% 30.07 in 10.0 mi South 10.4 mph - N/A   Clear
11:53 AM 64.0 °F - 54.0 °F 70% 30.03 in 10.0 mi SSW 15.0 mph - N/A   Clear
12:53 PM 66.0 °F - 54.0 °F 65% 29.99 in 10.0 mi SSW 9.2 mph - N/A   Clear
1:53 PM 66.9 °F - 53.1 °F 61% 29.96 in 10.0 mi WSW 10.4 mph - N/A   Clear
2:53 PM 66.0 °F - 53.1 °F 63% 29.94 in 10.0 mi SW 11.5 mph 18.4 mph N/A   Clear
3:53 PM 64.9 °F - 54.0 °F 68% 29.93 in 10.0 mi SSW 9.2 mph - N/A   Clear
4:53 PM 63.0 °F - 54.0 °F 72% 29.91 in 10.0 mi SSW 5.8 mph - N/A   Clear
5:53 PM 59.0 °F - 54.0 °F 83% 29.93 in 10.0 mi Calm Calm - N/A   Clear
6:53 PM 57.9 °F - 53.1 °F 84% 29.93 in 10.0 mi SW 3.5 mph - N/A   Clear
7:53 PM 55.0 °F - 52.0 °F 89% 29.94 in 10.0 mi Calm Calm - N/A   Clear
8:53 PM 52.0 °F - 51.1 °F 97% 29.92 in 10.0 mi WSW 3.5 mph - N/A   Clear
9:53 PM 51.1 °F - 50.0 °F 96% 29.91 in 8.0 mi WSW 3.5 mph - N/A   Clear
10:53 PM 48.0 °F - 48.0 °F 100% 29.91 in 8.0 mi West 4.6 mph - N/A   Clear
11:26 PM 46.9 °F - 46.9 °F 100% 29.91 in 1.2 mi NW 3.5 mph - N/A   Clear
11:33 PM 46.9 °F - 46.9 °F 100% 29.91 in 0.2 mi North 3.5 mph - N/A Fog Fog
11:53 PM 46.0 °F 44.8 °F 46.0 °F 100% 29.90 in 0.2 mi North 3.5 mph - N/A Fog Fog